Weather History for Medicine Hat, AB

Change the Weather History Date:

Monday, February 11, 2013

  Actual Average Record
Temperature  
Mean Temperature 0 °F -  
Max Temperature 32 °F 34 °F 62 °F (2005)
Min Temperature -32 °F 13 °F -32 °F (2013)
Degree Days  
Heating Degree Days 65    
Moisture  
Dew Point 8 °F    
Average Humidity 74    
Maximum Humidity 93    
Minimum Humidity 51    
Precipitation  
Precipitation 0.00 in 0.02 in - ()
Sea Level Pressure  
Sea Level Pressure 30.00 in    
Wind  
Wind Speed 8 mph ()    
Max Wind Speed 14 mph    
Max Gust Speed 18 mph    
Visibility 10.6 miles    
Events      
Averages and records for this station are not official NWS values.
T = Trace of Precipitation, MM = Missing Value Source: Averaged Metar Reports

Daily Weather History Graph

Daily Weather History Graph

Search for Another Location

Airport:

Trip Planner

Search our weather history database for the weather conditions in past years. The results will help you decide how hot, cold, wet, or windy it might be!

Date:

Astronomy

Feb. 11, 2013 Rise Set
Actual Time 7:39 AM MST 5:35 PM MST
Civil Twilight 7:06 AM MST 6:08 PM MST
Nautical Twilight 6:28 AM MST 6:46 PM MST
Astronomical Twilight 5:50 AM MST 7:24 PM MST
Moon 7:51 AM MST (2/11) 7:53 PM MST (2/11)
Length of Visible Light 11h 02m
Length of Day
9h 55m
Waxing Crescent, 3% of the Moon is Illuminated
Feb 11
Waxing Crescent
Feb 17
First Quarter
Feb 25
Full
Mar 4
Last Quarter
Mar 11
New

Hourly Weather History & Observations

Time (MST) Temp. Windchill Dew Point Humidity Pressure Visibility Wind Dir Wind Speed Gust Speed Precip Events Conditions
12:00 AM 8.6 °F -1.3 °F 6.8 °F 92% 30.14 in 9.0 mi South 5.8 mph - N/A   Clear
1:00 AM 12.2 °F 1.7 °F 10.4 °F 92% 30.11 in 9.0 mi South 6.9 mph - N/A   Clear
2:00 AM 14.0 °F 2.0 °F 10.4 °F 86% 30.06 in 9.0 mi SSW 9.2 mph - N/A   Clear
3:00 AM 17.6 °F 5.0 °F 14.0 °F 86% 30.02 in 9.0 mi SSW 11.5 mph - N/A   Clear
4:00 AM 17.6 °F 6.4 °F 14.0 °F 86% 29.99 in 9.0 mi SW 9.2 mph - N/A   Clear
5:00 AM -32 °F - -39 °F 53% 30.04 in - South 12.7 mph - -  
6:00 AM 19.4 °F 6.0 °F 12.2 °F 74% 29.97 in 15.0 mi SSW 13.8 mph - N/A   Clear
7:00 AM 19.4 °F 7.2 °F 12.2 °F 74% 29.96 in 30.0 mi SW 11.5 mph - N/A   Partly Cloudy
8:00 AM 19.4 °F 7.2 °F 12.2 °F 74% 29.98 in 30.0 mi SW 11.5 mph 18.4 mph N/A   Partly Cloudy
9:00 AM 21.2 °F 8.9 °F 14.0 °F 74% 29.99 in 30.0 mi SW 12.7 mph - N/A   Partly Cloudy
10:00 AM 23.0 °F 10.6 °F 14.0 °F 68% 30.00 in 30.0 mi SW 13.8 mph - N/A   Scattered Clouds
11:00 AM -29 °F - -35 °F 57% 30.03 in - SSW 9.2 mph - -  
11:00 AM 26.6 °F 15.7 °F 15.8 °F 64% 29.99 in 30.0 mi SW 12.7 mph 18.4 mph N/A   Partly Cloudy
12:00 PM 30.2 °F 20.8 °F 19.4 °F 64% 29.99 in 30.0 mi SW 11.5 mph - N/A   Partly Cloudy
1:00 PM 32.0 °F 23.6 °F 21.2 °F 64% 29.97 in 30.0 mi SW 10.4 mph - N/A   Partly Cloudy
2:00 PM 33.8 °F 25.3 °F 23.0 °F 65% 29.95 in 30.0 mi SW 11.5 mph - N/A   Partly Cloudy
4:00 PM 33.8 °F 26.4 °F 23.0 °F 65% 29.96 in 30.0 mi SW 9.2 mph - N/A   Mostly Cloudy
5:00 PM -32 °F - -39 °F 51% 30.03 in - South 5.8 mph - -  
5:00 PM 32.0 °F 25.6 °F 23.0 °F 69% 29.96 in 30.0 mi SSW 6.9 mph - N/A   Mostly Cloudy
6:00 PM 26.6 °F 21.2 °F 21.2 °F 80% 29.98 in 15.0 mi WSW 4.6 mph - N/A   Scattered Clouds
7:00 PM 24.8 °F 17.9 °F 21.2 °F 86% 29.99 in 15.0 mi South 5.8 mph - N/A   Clear
9:00 PM 19.4 °F 14.3 °F 17.6 °F 93% 30.01 in 9.0 mi SW 3.5 mph - N/A   Clear
10:00 PM 19.4 °F 10.4 °F 17.6 °F 93% 29.99 in 9.0 mi South 6.9 mph - N/A   Clear
11:00 PM -31 °F - -37 °F 55% 29.98 in - NW 2.3 mph - -  
11:00 PM 19.4 °F 10.4 °F 17.6 °F 93% 29.99 in 9.0 mi SSW 6.9 mph - N/A   Partly Cloudy